Juan Manuel Galvez International Airport
MHRO : now visible

Airfield :











YOU CAN JOIN US ON...

 
LOGIN :

Register | Disclaimer

   EN    FR    IT 

 









Legend :    VFR   Marginal VFR   IFR   Intensive IFR   Very Intensive IFR
Visi :
Ceiling :
>= 8 km
>= 3000ft
5 to 8 km
1000 to 3000 ft
1500m to 5 km
500 to 1000 ft
800 to 1500m
200 to 500 ft
< 800m
< 200 ft
Symbols :   Thunderstorms  Fog  Heavy snow  Heavy precipitations  Wind > 20 kt






- Airport Elevation : 18 ft
- IATA code : RTB


MHRO - Juan Manuel Galvez International

EXPIRED METARs :
  • 022100Z 08014KT 9999 FEW024CB BKN200 32/26 Q1008 A2977

TAF TAF MHRO
Valid from the 02 at 18:00 until the 03 at 18:00 UTC


021650Z 0218/0318 13016KT 9999 FEW020TCU BKN080 TX31/0220Z TN26/0312Z
PROB30
TEMPO 0220/0302 7000 TSRA SCT020CB BKN080
BECMG 0302/0304 6000
BECMG 0308/0310 8000 VCSH SCT020TCU OVC070
BECMG 0314/0316 9999 NSW
MHTG FIR / North America



MET'MAP, your aeronautical weather chart ! - Copyright ORBIFLY December 2007 - Disclaimer

ORBIFLY MET'MAP TEAM :

Programming & Development : Alexandra Zaïnal
Concept & original design : Baudouin d'Aumeries
Assistance for programming : Marc-Olivier Méhu
Technical & hardware support : Manuel Goepfert

Contact : metmap@orbifly.com




SOURCES & CREDITS :

   NOAA       Earth
Advisory